User: anonymous   Login
Location: Fishcreek Rd Observing Site
(41.1865°N, 81.4271°W)
Time: 21:15:59
(UTC-04:00)
Language:

Iridium 75 - Orbit

View from above orbital plane
View from above orbital plane
View from above satellite
View from above satellite

Ground track
Ground track

The orbit data is extracted from the following two-line orbital elements,

1 25346U 98032E   17149.36347378 +.00000181 +00000-0 +57495-4 0  9999
2 25346 086.3994 231.9684 0002381 095.4237 264.7231 14.34217906996970
Epoch (UTC): 29 May 2017 08:43:24
Eccentricity: 0.0002381
inclination: 86.3994°
perigee height: 776 km
apogee height: 779 km
right ascension of ascending node: 231.9684°
argument of perigee: 95.4237°
revolutions per day: 14.34217906
mean anomaly at epoch: 264.7231°
orbit number at epoch: 99697

The dashed part of the orbit path shows where the satellite is in the earth's shadow,  

DLR